| time (UTC) | temp F | wind direction | speed MPH | gust MPH | rain 1hr in | rain 24hr in | rain mn in | humidity % | barometer mb |
| 20260507031140 | 47 | 333 | 0.0 | 0.0 | 0.00 | 0.00 | 0.00 | 86 | 1018.2 |
| 20260507030139 | 48 | 333 | 0.0 | 0.0 | 0.00 | 0.00 | 0.00 | 86 | 1018.0 |
| 20260507025141 | 48 | 333 | 0.0 | 0.0 | 0.00 | 0.00 | 0.00 | 84 | 1017.9 |
| 20260507024138 | 49 | 333 | 0.0 | 0.0 | 0.00 | 0.00 | 0.00 | 84 | 1017.7 |
| 20260507023138 | 49 | 333 | 0.0 | 0.0 | 0.00 | 0.00 | 0.00 | 82 | 1017.7 |
| 20260507022148 | 51 | 333 | 0.0 | 0.0 | 0.00 | 0.00 | 0.00 | 81 | 1017.3 |
| 20260507022137 | 50 | 333 | 0.0 | 0.0 | 0.00 | 0.00 | 0.00 | 82 | 1017.5 |
| 20260507021242 | 51 | 333 | 0.0 | 0.0 | 0.00 | 0.00 | 0.00 | 81 | 1017.3 |
| 20260507020138 | 52 | 333 | 0.0 | 0.0 | 0.00 | 0.00 | 0.00 | 80 | 1017.4 |
| 20260507015138 | 52 | 333 | 0.0 | 0.0 | 0.00 | 0.00 | 0.00 | 79 | 1017.3 |
| 20260507014136 | 53 | 333 | 0.0 | 0.0 | 0.00 | 0.00 | 0.00 | 77 | 1017.2 |
| 20260507013145 | 55 | 333 | 0.0 | 0.0 | 0.00 | 0.00 | 0.00 | 74 | 1017.0 |
| 20260507013135 | 54 | 333 | 0.0 | 0.0 | 0.00 | 0.00 | 0.00 | 74 | 1017.2 |
| 20260507012242 | 55 | 333 | 0.0 | 0.0 | 0.00 | 0.00 | 0.00 | 74 | 1017.0 |
| 20260507011135 | 55 | 333 | 0.0 | 0.0 | 0.00 | 0.00 | 0.00 | 74 | 1017.0 |
| 20260507010136 | 56 | 333 | 0.0 | 0.0 | 0.00 | 0.00 | 0.00 | 72 | 1017.0 |
| 20260507005136 | 57 | 295 | 0.0 | 0.0 | 0.00 | 0.00 | 0.00 | 71 | 1016.9 |
| 20260507004134 | 58 | 295 | 0.0 | 0.0 | 0.00 | 0.00 | 0.00 | 72 | 1016.8 |
| 20260507003133 | 58 | 295 | 0.0 | 0.0 | 0.00 | 0.00 | 0.00 | 74 | 1016.9 |
| 20260507002132 | 58 | 295 | 0.0 | 0.0 | 0.00 | 0.00 | 0.00 | 71 | 1016.8 |
| 20260507001130 | 58 | 295 | 0.0 | 0.0 | 0.00 | 0.00 | 0.00 | 68 | 1016.7 |
| 20260507000129 | 59 | 293 | 0.0 | 1.0 | 0.00 | 0.00 | 0.00 | 65 | 1016.7 |
| 20260506235126 | 59 | 290 | 0.0 | 1.0 | 0.00 | 0.00 | 0.00 | 65 | 1016.8 |
| 20260506234127 | 59 | 243 | 0.0 | 2.0 | 0.00 | 0.00 | 0.00 | 66 | 1016.7 |
| 20260506233127 | 59 | 8 | 0.0 | 0.0 | 0.00 | 0.00 | 0.00 | 63 | 1016.6 |
| 20260506232135 | 60 | 302 | 0.0 | 2.0 | 0.00 | 0.00 | 0.00 | 61 | 1016.5 |
| 20260506232124 | 60 | 1 | 0.0 | 1.0 | 0.00 | 0.00 | 0.00 | 63 | 1016.6 |
| 20260506231248 | 60 | 352 | 0.0 | 3.0 | 0.00 | 0.00 | 0.00 | 65 | 1016.4 |
| 20260506231229 | 60 | 302 | 0.0 | 2.0 | 0.00 | 0.00 | 0.00 | 61 | 1016.5 |
| 20260506230229 | 60 | 352 | 0.0 | 3.0 | 0.00 | 0.00 | 0.00 | 65 | 1016.4 |
| 20260506225128 | 60 | 333 | 0.0 | 3.0 | 0.00 | 0.00 | 0.00 | 64 | 1016.3 |
| 20260506225123 | 60 | 177 | 2.0 | 8.0 | 0.00 | 0.00 | 0.00 | 66 | 1016.0 |
| 20260506224225 | 60 | 177 | 2.0 | 8.0 | 0.00 | 0.00 | 0.00 | 66 | 1016.0 |
| 20260506223121 | 60 | 37 | 2.0 | 7.0 | 0.00 | 0.00 | 0.00 | 66 | 1015.9 |
| 20260506222133 | 59 | 28 | 1.0 | 6.0 | 0.00 | 0.00 | 0.00 | 69 | 1015.2 |
| 20260506222122 | 59 | 9 | 1.0 | 9.0 | 0.00 | 0.00 | 0.00 | 66 | 1015.4 |
| 20260506221227 | 59 | 28 | 1.0 | 6.0 | 0.00 | 0.00 | 0.00 | 69 | 1015.2 |
| 20260506220123 | 59 | 359 | 0.0 | 3.0 | 0.00 | 0.00 | 0.00 | 68 | 1015.6 |
| 20260506215120 | 59 | 333 | 0.0 | 2.0 | 0.00 | 0.00 | 0.00 | 70 | 1015.7 |
| 20260506214121 | 59 | 77 | 0.0 | 1.0 | 0.00 | 0.00 | 0.00 | 69 | 1015.8 |
| 20260506213119 | 59 | 345 | 1.0 | 6.0 | 0.00 | 0.00 | 0.00 | 69 | 1015.7 |
| 20260506212121 | 60 | 25 | 0.0 | 6.0 | 0.00 | 0.00 | 0.00 | 68 | 1015.9 |
| 20260506211118 | 58 | 268 | 0.0 | 1.0 | 0.00 | 0.00 | 0.00 | 70 | 1016.1 |
| 20260506210120 | 58 | 264 | 0.0 | 2.0 | 0.00 | 0.00 | 0.00 | 67 | 1016.0 |
| 20260506205120 | 58 | 0 | 0.0 | 4.0 | 0.00 | 0.00 | 0.00 | 72 | 1016.3 |
| 20260506204119 | 59 | 172 | 0.0 | 1.0 | 0.00 | 0.00 | 0.00 | 69 | 1016.5 |
| 20260506203119 | 58 | 251 | 0.0 | 1.0 | 0.00 | 0.00 | 0.00 | 69 | 1016.5 |
| 20260506202119 | 58 | 359 | 0.0 | 2.0 | 0.00 | 0.00 | 0.00 | 68 | 1016.7 |
| 20260506201120 | 58 | 60 | 0.0 | 2.0 | 0.00 | 0.00 | 0.00 | 67 | 1016.8 |
| 20260506200118 | 59 | 357 | 0.0 | 2.0 | 0.00 | 0.00 | 0.00 | 68 | 1016.7 |
| 20260506195136 | 59 | 4 | 1.0 | 5.0 | 0.00 | 0.00 | 0.00 | 68 | 1017.2 |
| 20260506195120 | 59 | 89 | 1.0 | 5.0 | 0.00 | 0.00 | 0.00 | 66 | 1017.1 |
| 20260506194224 | 59 | 4 | 1.0 | 5.0 | 0.00 | 0.00 | 0.00 | 68 | 1017.2 |
| 20260506193123 | 58 | 11 | 0.0 | 4.0 | 0.00 | 0.00 | 0.00 | 67 | 1017.3 |
| 20260506193117 | 58 | 344 | 1.0 | 6.0 | 0.00 | 0.00 | 0.00 | 69 | 1017.4 |
| 20260506192222 | 58 | 344 | 1.0 | 6.0 | 0.00 | 0.00 | 0.00 | 69 | 1017.4 |
| 20260506191127 | 57 | 32 | 1.0 | 8.0 | 0.00 | 0.00 | 0.00 | 71 | 1017.2 |
| 20260506191116 | 58 | 1 | 0.0 | 5.0 | 0.00 | 0.00 | 0.00 | 71 | 1017.4 |
| 20260506190221 | 57 | 32 | 1.0 | 8.0 | 0.00 | 0.00 | 0.00 | 71 | 1017.2 |
| 20260506185124 | 57 | 1 | 0.0 | 5.0 | 0.00 | 0.00 | 0.00 | 73 | 1017.4 |
| 20260506185114 | 57 | 52 | 0.0 | 3.0 | 0.00 | 0.00 | 0.00 | 69 | 1017.3 |
| 20260506184220 | 57 | 1 | 0.0 | 5.0 | 0.00 | 0.00 | 0.00 | 73 | 1017.4 |
| 20260506183123 | 56 | 4 | 2.0 | 7.0 | 0.00 | 0.00 | 0.00 | 71 | 1017.7 |
| 20260506183114 | 55 | 338 | 1.0 | 8.0 | 0.00 | 0.00 | 0.00 | 71 | 1017.5 |
| 20260506182239 | 56 | 127 | 0.0 | 3.0 | 0.00 | 0.00 | 0.00 | 70 | 1018.1 |
| 20260506182218 | 56 | 4 | 2.0 | 7.0 | 0.00 | 0.00 | 0.00 | 71 | 1017.7 |
| 20260506181216 | 56 | 127 | 0.0 | 3.0 | 0.00 | 0.00 | 0.00 | 70 | 1018.1 |
| 20260506180114 | 55 | 62 | 1.0 | 7.0 | 0.00 | 0.00 | 0.00 | 72 | 1018.2 |
| 20260506175114 | 54 | 8 | 0.0 | 1.0 | 0.00 | 0.00 | 0.00 | 71 | 1018.7 |
| 20260506174112 | 54 | 337 | 0.0 | 1.0 | 0.00 | 0.00 | 0.00 | 72 | 1018.9 |
| 20260506173112 | 54 | 136 | 0.0 | 4.0 | 0.00 | 0.00 | 0.00 | 77 | 1019.0 |
| 20260506172112 | 53 | 2 | 0.0 | 1.0 | 0.00 | 0.00 | 0.00 | 76 | 1019.3 |
| 20260506171108 | 53 | 1 | 3.0 | 7.0 | 0.00 | 0.00 | 0.00 | 75 | 1019.2 |
| 20260506170109 | 53 | 345 | 2.0 | 7.0 | 0.00 | 0.00 | 0.00 | 76 | 1019.0 |
| 20260506165107 | 53 | 1 | 1.0 | 8.0 | 0.00 | 0.00 | 0.00 | 77 | 1018.8 |
| 20260506164107 | 52 | 1 | 1.0 | 7.0 | 0.00 | 0.00 | 0.00 | 79 | 1018.5 |
| 20260506163108 | 51 | 82 | 0.0 | 1.0 | 0.00 | 0.00 | 0.00 | 78 | 1018.4 |
| 20260506162106 | 51 | 89 | 0.0 | 1.0 | 0.00 | 0.00 | 0.00 | 79 | 1018.0 |
| 20260506161107 | 51 | 196 | 0.0 | 4.0 | 0.00 | 0.00 | 0.00 | 77 | 1017.9 |
| 20260506160104 | 52 | 82 | 0.0 | 3.0 | 0.00 | 0.00 | 0.00 | 77 | 1017.9 |
| 20260506155102 | 52 | 348 | 0.0 | 4.0 | 0.00 | 0.00 | 0.00 | 77 | 1017.7 |
| 20260506154102 | 52 | 41 | 0.0 | 5.0 | 0.00 | 0.00 | 0.00 | 79 | 1017.2 |
| 20260506153102 | 51 | 55 | 0.0 | 3.0 | 0.00 | 0.00 | 0.00 | 79 | 1017.2 |
| 20260506152102 | 51 | 56 | 0.0 | 5.0 | 0.00 | 0.00 | 0.00 | 79 | 1017.5 |
| 20260506151101 | 51 | 22 | 1.0 | 6.0 | 0.00 | 0.00 | 0.00 | 78 | 1017.8 |
| 20260506150114 | 51 | 359 | 0.0 | 4.0 | 0.00 | 0.00 | 0.00 | 81 | 1017.3 |
| 20260506150105 | 51 | 34 | 0.0 | 9.0 | 0.00 | 0.00 | 0.00 | 79 | 1017.7 |
| 20260506145207 | 51 | 359 | 0.0 | 4.0 | 0.00 | 0.00 | 0.00 | 81 | 1017.3 |
| 20260506144103 | 50 | 359 | 0.0 | 2.0 | 0.00 | 0.00 | 0.00 | 82 | 1017.4 |
| 20260506143102 | 50 | 0 | 0.0 | 2.0 | 0.00 | 0.00 | 0.00 | 83 | 1017.3 |
| 20260506142102 | 50 | 334 | 0.0 | 1.0 | 0.00 | 0.00 | 0.00 | 83 | 1017.2 |
| 20260506141103 | 49 | 346 | 0.0 | 3.0 | 0.00 | 0.00 | 0.00 | 84 | 1017.1 |
| 20260506135103 | 48 | 100 | 0.0 | 6.0 | 0.00 | 0.00 | 0.00 | 85 | 1017.1 |
| 20260506134103 | 48 | 245 | 0.0 | 7.0 | 0.00 | 0.00 | 0.00 | 87 | 1017.4 |
| 20260506133102 | 48 | 44 | 0.0 | 1.0 | 0.00 | 0.00 | 0.00 | 87 | 1017.5 |
| 20260506132103 | 47 | 36 | 0.0 | 5.0 | 0.00 | 0.00 | 0.00 | 87 | 1017.2 |
| 20260506131102 | 47 | 1 | 0.0 | 1.0 | 0.00 | 0.00 | 0.00 | 88 | 1017.1 |
| 20260506125102 | 47 | 355 | 0.0 | 4.0 | 0.00 | 0.00 | 0.00 | 87 | 1017.0 |
| 20260506124102 | 47 | 13 | 0.0 | 2.0 | 0.00 | 0.00 | 0.00 | 87 | 1016.9 |
| 20260506123100 | 47 | 16 | 0.0 | 2.0 | 0.00 | 0.00 | 0.00 | 87 | 1017.1 |
| 20260506122205 | 47 | 44 | 0.0 | 1.0 | 0.00 | 0.00 | 0.00 | 87 | 1016.8 |
| 20260506121059 | 47 | 352 | 0.0 | 2.0 | 0.00 | 0.00 | 0.00 | 87 | 1016.4 |
| 20260506120057 | 47 | 2 | 0.0 | 1.0 | 0.00 | 0.00 | 0.00 | 86 | 1016.4 |
| 20260506115056 | 47 | 0 | 0.0 | 1.0 | 0.00 | 0.00 | 0.00 | 86 | 1016.4 |
| 20260506114105 | 47 | 35 | 1.0 | 12.0 | 0.00 | 0.00 | 0.00 | 85 | 1016.2 |
| 20260506114056 | 47 | 43 | 1.0 | 9.0 | 0.00 | 0.00 | 0.00 | 86 | 1016.3 |
| 20260506113203 | 47 | 35 | 1.0 | 12.0 | 0.00 | 0.00 | 0.00 | 85 | 1016.2 |
| 20260506112107 | 47 | 1 | 0.0 | 8.0 | 0.00 | 0.00 | 0.00 | 85 | 1016.0 |
| 20260506112057 | 47 | 4 | 2.0 | 8.0 | 0.00 | 0.00 | 0.00 | 85 | 1016.0 |
| 20260506111201 | 47 | 1 | 0.0 | 8.0 | 0.00 | 0.00 | 0.00 | 85 | 1016.0 |
| 20260506110058 | 47 | 15 | 0.0 | 1.0 | 0.00 | 0.00 | 0.00 | 86 | 1015.8 |
| 20260506105055 | 47 | 353 | 0.0 | 1.0 | 0.00 | 0.00 | 0.00 | 87 | 1015.7 |
| 20260506104051 | 47 | 349 | 0.0 | 1.0 | 0.00 | 0.00 | 0.00 | 87 | 1015.0 |
| 20260506103051 | 47 | 333 | 0.0 | 1.0 | 0.00 | 0.00 | 0.00 | 88 | 1014.6 |
| 20260506102049 | 47 | 332 | 0.0 | 1.0 | 0.00 | 0.00 | 0.00 | 87 | 1014.7 |
| 20260506101047 | 47 | 333 | 0.0 | 1.0 | 0.00 | 0.00 | 0.00 | 87 | 1014.3 |
| 20260506100048 | 47 | 8 | 0.0 | 1.0 | 0.00 | 0.00 | 0.00 | 86 | 1013.9 |
| 20260506095044 | 47 | 27 | 0.0 | 1.0 | 0.00 | 0.00 | 0.00 | 86 | 1013.8 |
| 20260506094044 | 47 | 86 | 0.0 | 1.0 | 0.00 | 0.01 | 0.00 | 86 | 1013.5 |
| 20260506093043 | 47 | 84 | 0.0 | 3.0 | 0.00 | 0.01 | 0.00 | 86 | 1013.2 |
| 20260506092045 | 47 | 181 | 0.0 | 0.0 | 0.00 | 0.02 | 0.00 | 87 | 1013.2 |
| 20260506091045 | 47 | 275 | 0.0 | 0.0 | 0.00 | 0.02 | 0.00 | 88 | 1013.4 |
| 20260506090045 | 47 | 275 | 0.0 | 2.0 | 0.00 | 0.03 | 0.00 | 88 | 1013.5 |
| 20260506085045 | 47 | 67 | 0.0 | 1.0 | 0.00 | 0.04 | 0.00 | 88 | 1013.7 |
| 20260506084053 | 47 | 356 | 0.0 | 1.0 | 0.00 | 0.04 | 0.00 | 89 | 1013.3 |
| 20260506084044 | 47 | 65 | 0.0 | 2.0 | 0.00 | 0.04 | 0.00 | 88 | 1013.5 |
| 20260506083149 | 47 | 356 | 0.0 | 1.0 | 0.00 | 0.04 | 0.00 | 89 | 1013.3 |
| 20260506082043 | 47 | 8 | 0.0 | 5.0 | 0.00 | 0.05 | 0.00 | 90 | 1013.1 |
| 20260506081043 | 47 | 238 | 0.0 | 3.0 | 0.00 | 0.15 | 0.00 | 90 | 1012.9 |
| 20260506073038 | 47 | 8 | 0.0 | 7.0 | 0.00 | 0.88 | 0.00 | 93 | 1012.7 |
| 20260506072142 | 47 | 4 | 0.0 | 4.0 | 0.00 | 0.88 | 0.00 | 93 | 1012.6 |
| 20260506071038 | 47 | 0 | 0.0 | 1.0 | 0.00 | 0.88 | 0.00 | 92 | 1012.9 |
| 20260506062031 | 47 | 44 | 1.0 | 11.0 | 0.00 | 0.98 | 0.00 | 92 | 1013.0 |
| 20260506061043 | 47 | 0 | 0.0 | 4.0 | 0.00 | 1.00 | 0.00 | 92 | 1013.3 |
| 20260506061032 | 47 | 7 | 0.0 | 4.0 | 0.00 | 1.00 | 0.00 | 92 | 1013.1 |
| 20260506060136 | 47 | 0 | 0.0 | 4.0 | 0.00 | 1.00 | 0.00 | 92 | 1013.3 |
| 20260506051033 | 47 | 22 | 0.0 | 4.0 | 0.00 | 1.00 | 0.00 | 93 | 1013.1 |
| 20260506045031 | 47 | 333 | 0.0 | 1.0 | 0.00 | 1.00 | 1.00 | 93 | 1012.8 |
| 20260506044033 | 48 | 10 | 1.0 | 5.0 | 0.00 | 1.00 | 1.00 | 93 | 1012.7 |
| 20260506043032 | 48 | 340 | 0.0 | 1.0 | 0.00 | 1.00 | 1.00 | 92 | 1012.7 |
| 20260506042032 | 48 | 13 | 0.0 | 1.0 | 0.00 | 1.00 | 1.00 | 92 | 1012.7 |
| 20260506041031 | 49 | 0 | 1.0 | 8.0 | 0.00 | 1.00 | 1.00 | 91 | 1012.6 |
| 20260506040040 | 49 | 359 | 0.0 | 2.0 | 0.00 | 1.00 | 1.00 | 91 | 1012.2 |
| 20260506040030 | 49 | 351 | 0.0 | 6.0 | 0.00 | 1.00 | 1.00 | 91 | 1012.4 |
| 20260506035133 | 49 | 359 | 0.0 | 2.0 | 0.00 | 1.00 | 1.00 | 91 | 1012.2 |
| 20260506034040 | 49 | 72 | 0.0 | 2.0 | 0.00 | 1.00 | 1.00 | 92 | 1012.0 |
| 20260506034030 | 49 | 34 | 0.0 | 4.0 | 0.00 | 1.00 | 1.00 | 91 | 1012.2 |
| 20260506033133 | 49 | 72 | 0.0 | 2.0 | 0.00 | 1.00 | 1.00 | 92 | 1012.0 |
| 20260506032027 | 49 | 344 | 0.0 | 8.0 | 0.00 | 1.00 | 1.00 | 92 | 1011.7 |